KE7YUP Weather Reports


Display with metric or nautical units.
time (UTC)temp
F
wind
direction
speed
MPH
gust
MPH
rain 1hr
in
rain 24hr
in
rain mn
in
humidity
%
barometer
mb
20260507214816 71 154 7.0 10.0 0.00 0.00 0.00 25 1019.1
20260507213816 71 137 5.0 9.0 0.00 0.00 0.00 25 1019.3
20260507212816 70 73 5.0 8.0 0.00 0.00 0.00 27 1019.5
20260507211816 70 66 6.0 10.0 0.00 0.00 0.00 27 1019.7
20260507210816 69 88 9.0 12.0 0.00 0.00 0.00 26 1019.8
20260507205836 69 44 4.0 8.0 0.00 0.00 0.00 26 1020.0
20260507204816 69 80 7.0 10.0 0.00 0.00 0.00 26 1020.2
20260507203815 69 124 6.0 10.0 0.00 0.00 0.00 26 1020.3
20260507202816 68 97 9.0 12.0 0.00 0.00 0.00 27 1020.2
20260507201836 68 141 8.0 11.0 0.00 0.00 0.00 27 1020.2
20260507200816 67 105 7.0 9.0 0.00 0.00 0.00 27 1020.5
20260507195816 68 90 6.0 10.0 0.00 0.00 0.00 27 1020.5
20260507194815 68 118 5.0 9.0 0.00 0.00 0.00 27 1020.6
20260507193815 67 106 7.0 9.0 0.00 0.00 0.00 27 1020.7
20260507192816 67 121 5.0 10.0 0.00 0.00 0.00 26 1021.0
20260507191815 66 84 8.0 12.0 0.00 0.00 0.00 27 1020.8
20260507190816 66 106 8.0 11.0 0.00 0.00 0.00 27 1021.0
20260507185816 66 67 6.0 11.0 0.00 0.00 0.00 28 1021.6
20260507184815 66 107 5.0 8.0 0.00 0.00 0.00 27 1021.7
20260507183815 65 75 6.0 9.0 0.00 0.00 0.00 27 1021.9
20260507182815 64 102 5.0 8.0 0.00 0.00 0.00 28 1021.9
20260507181816 64 88 7.0 11.0 0.00 0.00 0.00 28 1022.1
20260507180815 63 106 3.0 8.0 0.00 0.00 0.00 29 1022.2
20260507175856 62 119 4.0 8.0 0.00 0.00 0.00 29 1022.1
20260507174835 62 115 4.0 11.0 0.00 0.00 0.00 29 1022.3
20260507173815 61 131 6.0 10.0 0.00 0.00 0.00 30 1022.3
20260507172815 61 119 6.0 10.0 0.00 0.00 0.00 28 1021.5
20260507171835 60 69 6.0 8.0 0.00 0.00 0.00 32 1021.6
20260507170815 59 86 7.0 10.0 0.00 0.00 0.00 35 1021.6
20260507165815 58 106 5.0 9.0 0.00 0.00 0.00 36 1022.5
20260507164835 57 117 2.0 7.0 0.00 0.00 0.00 41 1022.6
20260507163815 57 108 3.0 4.0 0.00 0.00 0.00 44 1022.8
20260507162815 56 132 2.0 6.0 0.00 0.00 0.00 46 1022.8
20260507161815 56 127 4.0 8.0 0.00 0.00 0.00 45 1022.8
20260507160815 54 139 2.0 6.0 0.00 0.00 0.00 47 1022.6
20260507155815 54 88 1.0 2.0 0.00 0.00 0.00 47 1022.3
20260507154815 53 60 3.0 5.0 0.00 0.00 0.00 49 1022.3
20260507153815 53 113 2.0 3.0 0.00 0.00 0.00 50 1022.5
20260507152815 53 74 3.0 5.0 0.00 0.00 0.00 50 1022.9
20260507151815 53 106 4.0 7.0 0.00 0.00 0.00 51 1022.9
20260507150815 53 76 1.0 4.0 0.00 0.00 0.00 50 1022.9
20260507145837 52 119 2.0 4.0 0.00 0.00 0.00 55 1022.6
20260507144817 50 92 1.0 3.0 0.00 0.00 0.00 57 1022.2
20260507143837 50 85 3.0 4.0 0.00 0.00 0.00 59 1022.3
20260507142817 50 83 2.0 5.0 0.00 0.00 0.00 59 1022.6
20260507141817 50 83 1.0 2.0 0.00 0.00 0.00 60 1022.6
20260507140817 49 83 1.0 3.0 0.00 0.00 0.00 61 1022.6
20260507135837 49 80 2.0 3.0 0.00 0.00 0.00 63 1023.0
20260507134817 49 70 1.0 2.0 0.00 0.00 0.00 64 1022.9
20260507133817 48 85 3.0 4.0 0.00 0.00 0.00 67 1023.0
20260507132817 48 82 2.0 3.0 0.00 0.00 0.00 68 1022.8
20260507131817 46 0.0 0.0 0.00 0.00 0.00 68 1022.4
20260507130817 46 72 0.0 1.0 0.00 0.00 0.00 66 1022.4
20260507125817 46 73 2.0 3.0 0.00 0.00 0.00 65 1022.4
20260507124837 45 71 3.0 5.0 0.00 0.00 0.00 63 1022.0
20260507123817 45 50 3.0 4.0 0.00 0.00 0.00 58 1021.8
20260507122816 46 50 3.0 4.0 0.00 0.00 0.00 60 1022.0
20260507121837 46 49 3.0 4.0 0.00 0.00 0.00 59 1022.0
20260507120816 45 11 1.0 2.0 0.00 0.00 0.00 55 1021.6
20260507115817 46 11 2.0 3.0 0.00 0.00 0.00 54 1021.9
20260507114817 46 11 2.0 3.0 0.00 0.00 0.00 56 1022.0
20260507113816 45 11 2.0 3.0 0.00 0.00 0.00 59 1021.8
20260507112817 45 11 3.0 4.0 0.00 0.00 0.00 62 1021.8
20260507111816 46 11 4.0 5.0 0.00 0.00 0.00 61 1022.0
20260507110836 46 11 3.0 3.0 0.00 0.00 0.00 62 1022.1
20260507105816 46 11 4.0 5.0 0.00 0.00 0.00 61 1021.8
20260507104816 45 11 4.0 5.0 0.00 0.00 0.00 63 1022.0
20260507103836 45 11 5.0 5.0 0.00 0.00 0.00 65 1022.1
20260507102816 45 11 2.0 3.0 0.00 0.00 0.00 65 1021.9
20260507101857 45 11 1.0 2.0 0.00 0.00 0.00 66 1021.9
20260507100816 45 11 1.0 2.0 0.00 0.00 0.00 65 1022.1
20260507095816 46 11 2.0 3.0 0.00 0.00 0.00 67 1022.1
20260507094816 45 356 3.0 4.0 0.00 0.00 0.00 67 1022.2
20260507093816 45 329 2.0 3.0 0.00 0.00 0.00 65 1022.4
20260507092816 47 329 4.0 5.0 0.00 0.00 0.00 61 1022.9
20260507091837 48 111 1.0 2.0 0.00 0.00 0.00 60 1022.9
20260507090816 47 53 2.0 4.0 0.00 0.02 0.00 61 1022.9
20260507085816 47 350 1.0 2.0 0.00 0.06 0.00 60 1022.6
20260507084816 47 350 1.0 2.0 0.00 0.08 0.00 59 1022.8
20260507083816 47 350 1.0 3.0 0.00 0.08 0.00 57 1022.7
20260507082836 47 350 4.0 5.0 0.00 0.08 0.00 52 1022.6
20260507081816 47 350 4.0 5.0 0.00 0.08 0.00 53 1022.8
20260507080816 47 350 4.0 5.0 0.00 0.08 0.00 50 1022.7
20260507075836 46 350 5.0 6.0 0.00 0.08 0.00 51 1022.4
20260507074816 46 350 2.0 3.0 0.00 0.08 0.00 48 1022.4
20260507073816 46 350 3.0 4.0 0.00 0.08 0.00 48 1022.5
20260507072816 47 350 3.0 3.0 0.00 0.08 0.00 46 1022.6
20260507071836 47 350 2.0 2.0 0.00 0.08 0.00 47 1022.6
20260507070816 47 350 1.0 3.0 0.00 0.08 0.00 47 1022.6
20260507065816 47 350 1.0 2.0 0.00 0.08 0.00 46 1022.2
20260507064816 48 350 2.0 3.0 0.00 0.08 0.00 44 1022.4
20260507063816 49 350 1.0 2.0 0.00 0.08 0.00 42 1022.3
20260507062816 48 350 3.0 5.0 0.00 0.08 0.00 42 1022.4
20260507061816 49 331 3.0 5.0 0.00 0.08 0.00 41 1022.6
20260507060816 50 331 3.0 4.0 0.00 0.08 0.00 39 1022.6
20260507055815 51 300 2.0 3.0 0.00 0.08 0.08 38 1022.6
20260507054815 51 300 2.0 3.0 0.00 0.08 0.08 37 1022.5
20260507053815 51 300 3.0 4.0 0.00 0.08 0.08 37 1022.6
20260507052815 49 302 4.0 5.0 0.00 0.08 0.08 40 1022.1
20260507051815 48 325 5.0 6.0 0.00 0.08 0.08 41 1021.8
20260507050817 47 338 2.0 4.0 0.00 0.08 0.08 45 1021.9
20260507045817 47 269 6.0 8.0 0.00 0.08 0.08 47 1021.6
20260507044817 50 224 3.0 5.0 0.00 0.08 0.08 41 1022.3
20260507043815 53 330 4.0 6.0 0.00 0.08 0.08 33 1022.3
20260507042817 53 320 4.0 5.0 0.00 0.08 0.08 33 1022.2
20260507041817 54 321 5.0 6.0 0.00 0.08 0.08 32 1022.5
20260507040817 55 310 6.0 8.0 0.00 0.08 0.08 30 1022.6
20260507035817 54 316 5.0 8.0 0.00 0.08 0.08 32 1022.5
20260507034817 53 314 9.0 11.0 0.00 0.08 0.08 35 1022.4
20260507033817 53 314 10.0 12.0 0.00 0.08 0.08 34 1022.4
20260507032817 53 304 7.0 10.0 0.00 0.08 0.08 34 1022.1
20260507031837 53 290 0.0 1.0 0.00 0.08 0.08 33 1022.0
20260507030817 54 355 1.0 3.0 0.00 0.08 0.08 33 1022.4
20260507025816 55 0 5.0 6.0 0.00 0.08 0.08 30 1022.4
20260507024817 55 8 5.0 7.0 0.00 0.08 0.08 30 1022.3
20260507023817 54 15 3.0 4.0 0.00 0.08 0.08 31 1021.9
20260507022816 54 337 4.0 5.0 0.00 0.08 0.08 34 1021.9
20260507021837 56 327 3.0 4.0 0.00 0.08 0.08 32 1022.2
20260507020816 57 47 0.0 1.0 0.00 0.08 0.08 29 1022.6
20260507015817 58 47 1.0 3.0 0.00 0.08 0.08 27 1022.2
20260507014816 58 38 4.0 6.0 0.00 0.08 0.08 27 1022.2
20260507013816 59 63 4.0 5.0 0.00 0.08 0.08 26 1022.6
20260507012837 60 23 3.0 10.0 0.00 0.08 0.08 24 1022.6
20260507011816 60 39 6.0 10.0 0.00 0.08 0.08 25 1022.6
20260507010817 60 26 5.0 11.0 0.00 0.08 0.08 24 1022.6
20260507005836 60 7 8.0 12.0 0.00 0.08 0.08 24 1022.2
20260507004817 60 354 8.0 13.0 0.00 0.08 0.08 25 1022.2
20260507003816 60 360 11.0 15.0 0.00 0.08 0.08 24 1022.2
20260507002816 60 16 11.0 18.0 0.00 0.08 0.08 24 1022.1
20260507001816 60 11 9.0 15.0 0.00 0.08 0.08 24 1022.2
20260507000816 61 346 6.0 12.0 0.00 0.08 0.08 24 1022.2
20260506235816 61 323 12.0 16.0 0.00 0.08 0.08 24 1022.1
20260506234816 60 335 7.0 13.0 0.00 0.08 0.08 25 1022.0
20260506233816 60 42 16.0 22.0 0.00 0.08 0.08 25 1022.0
20260506232816 60 35 6.0 16.0 0.00 0.08 0.08 24 1021.5
20260506231816 60 356 11.0 17.0 0.00 0.08 0.08 26 1021.7
20260506230816 60 21 10.0 15.0 0.00 0.08 0.08 26 1021.7
20260506225816 59 45 13.0 16.0 0.00 0.08 0.08 27 1021.6
20260506224836 59 358 12.0 17.0 0.00 0.08 0.08 27 1021.7
20260506223816 59 355 13.0 20.0 0.00 0.08 0.08 27 1021.8
20260506222816 59 11 9.0 13.0 0.00 0.08 0.08 27 1021.6
20260506221816 58 330 8.0 15.0 0.00 0.08 0.08 27 1021.7
20260506220816 58 319 9.0 20.0 0.00 0.08 0.08 27 1021.7
20260506215816 58 325 13.0 20.0 0.00 0.08 0.08 28 1022.4